Location: *
(49.0044°N, 9.5056°E)
Time: 02:15:00
(UTC+00:00)

Meteor 1-4 Rocket - Pass Details

Date: 22 September 2019
Orbit: 449 x 504 km, 81.2° (Epoch: 14 October)

Event Time Altitude Azimuth Distance (km) Brightness Sun altitude
Rises 18:00:40 0° 356° (N) 2,516 6.4 -7.3°
Reaches altitude 10° 18:02:56 10° 7° (N) 1,625 5.3 -7.7°
Maximum altitude 18:06:08 31° 71° (ENE) 828 3.3 -8.2°
Drops below altitude 10° 18:09:17 10° 136° (SE) 1,591 4.7 -8.7°
Enters shadow 18:10:08 - 141° (SE) 1,914 5.1 -8.9°
